| time (UTC) | temp C | wind direction | speed KPH | gust KPH | rain 1hr cm | rain 24hr cm | rain mn cm | humidity % | barometer mb |
| 20260506024554 | 10 | 40 | 8.0 | 22.5 | 0.00 | 0.00 | 0.00 | 79 | 1012.0 |
| 20260506023104 | 10 | 16 | 12.9 | 22.5 | 0.00 | 0.00 | 0.00 | 79 | 1011.8 |
| 20260506021608 | 10 | 10 | 11.3 | 22.5 | 0.00 | 0.00 | 0.00 | 79 | 1011.6 |
| 20260506020046 | 10 | 38 | 12.9 | 22.5 | 0.00 | 0.00 | 0.00 | 79 | 1011.0 |
| 20260506014544 | 10 | 25 | 12.9 | 24.1 | 0.00 | 0.00 | 0.00 | 79 | 1010.7 |
| 20260506013044 | 10 | 10 | 8.0 | 20.9 | 0.00 | 0.00 | 0.00 | 79 | 1010.2 |
| 20260506011540 | 10 | 32 | 12.9 | 27.4 | 0.00 | 0.00 | 0.00 | 78 | 1010.2 |
| 20260506010037 | 10 | 20 | 9.7 | 24.1 | 0.00 | 0.00 | 0.00 | 78 | 1010.1 |
| 20260506004535 | 10 | 60 | 9.7 | 19.3 | 0.00 | 0.00 | 0.00 | 77 | 1010.0 |
| 20260506003033 | 10 | 28 | 9.7 | 22.5 | 0.00 | 0.00 | 0.00 | 76 | 1010.2 |
| 20260506001535 | 10 | 103 | 12.9 | 22.5 | 0.00 | 0.00 | 0.00 | 76 | 1009.3 |
| 20260506000029 | 10 | 46 | 12.9 | 27.4 | 0.00 | 0.00 | 0.00 | 75 | 1009.6 |
| 20260505234527 | 10 | 44 | 12.9 | 29.0 | 0.00 | 0.00 | 0.00 | 75 | 1009.7 |
| 20260505233024 | 10 | 66 | 11.3 | 24.1 | 0.00 | 0.00 | 0.00 | 75 | 1009.5 |
| 20260505231536 | 10 | 47 | 14.5 | 25.7 | 0.00 | 0.00 | 0.00 | 74 | 1009.5 |
| 20260505230025 | 11 | 38 | 14.5 | 25.7 | 0.00 | 0.00 | 0.00 | 74 | 1009.1 |
| 20260505224518 | 11 | 20 | 12.9 | 33.8 | 0.00 | 0.00 | 0.00 | 74 | 1008.5 |
| 20260505223018 | 11 | 53 | 11.3 | 27.4 | 0.00 | 0.00 | 0.00 | 74 | 1008.7 |
| 20260505221516 | 11 | 44 | 19.3 | 30.6 | 0.00 | 0.00 | 0.00 | 74 | 1007.9 |
| 20260505220012 | 11 | 15 | 16.1 | 29.0 | 0.00 | 0.00 | 0.00 | 75 | 1008.0 |
| 20260505214511 | 11 | 59 | 12.9 | 29.0 | 0.00 | 0.00 | 0.00 | 76 | 1007.8 |
| 20260505213015 | 11 | 25 | 16.1 | 27.4 | 0.00 | 0.00 | 0.00 | 75 | 1008.3 |
| 20260505211510 | 12 | 28 | 11.3 | 30.6 | 0.00 | 0.00 | 0.00 | 76 | 1008.1 |
| 20260505210004 | 12 | 59 | 14.5 | 30.6 | 0.00 | 0.00 | 0.00 | 78 | 1007.4 |
| 20260505204501 | 12 | 38 | 11.3 | 20.9 | 0.00 | 0.00 | 0.00 | 80 | 1007.7 |
| 20260505203121 | 12 | 19 | 17.7 | 35.4 | 0.00 | 0.00 | 0.00 | 80 | 1007.9 |
| 20260505201603 | 12 | 36 | 8.0 | 22.5 | 0.00 | 0.00 | 0.00 | 81 | 1007.3 |
| 20260505200057 | 12 | 32 | 12.9 | 25.7 | 0.00 | 0.00 | 0.00 | 79 | 1007.4 |
| 20260505194554 | 12 | 40 | 12.9 | 27.4 | 0.00 | 0.00 | 0.00 | 80 | 1007.2 |
| 20260505193051 | 12 | 14 | 14.5 | 24.1 | 0.00 | 0.00 | 0.00 | 81 | 1007.3 |
| 20260505191600 | 12 | 52 | 14.5 | 27.4 | 0.00 | 0.00 | 0.00 | 82 | 1006.8 |
| 20260505190047 | 12 | 43 | 11.3 | 29.0 | 0.00 | 0.00 | 0.00 | 83 | 1006.8 |
| 20260505184546 | 12 | 34 | 11.3 | 25.7 | 0.00 | 0.00 | 0.00 | 83 | 1006.7 |
| 20260505183044 | 13 | 52 | 14.5 | 29.0 | 0.00 | 0.00 | 0.00 | 83 | 1006.6 |
| 20260505181546 | 13 | 45 | 11.3 | 24.1 | 0.00 | 0.00 | 0.00 | 84 | 1006.9 |
| 20260505180040 | 13 | 73 | 14.5 | 30.6 | 0.00 | 0.00 | 0.00 | 84 | 1006.4 |
| 20260505174542 | 13 | 355 | 16.1 | 24.1 | 0.00 | 0.00 | 0.00 | 84 | 1005.8 |
| 20260505173033 | 13 | 65 | 11.3 | 22.5 | 0.00 | 0.00 | 0.00 | 85 | 1005.8 |
| 20260505171532 | 13 | 355 | 9.7 | 24.1 | 0.00 | 0.00 | 0.00 | 85 | 1005.9 |
| 20260505170026 | 13 | 44 | 11.3 | 27.4 | 0.00 | 0.00 | 0.00 | 85 | 1005.4 |
| 20260505164523 | 14 | 53 | 14.5 | 27.4 | 0.00 | 0.00 | 0.00 | 84 | 1005.1 |
| 20260505163021 | 15 | 32 | 11.3 | 24.1 | 0.00 | 0.00 | 0.00 | 84 | 1005.0 |
| 20260505161515 | 15 | 38 | 9.7 | 27.4 | 0.00 | 0.00 | 0.00 | 85 | 1004.7 |
| 20260505153005 | 20 | 5 | 6.4 | 16.1 | 0.00 | 0.00 | 0.00 | 78 | 1004.1 |
| 20260505151502 | 21 | 57 | 1.6 | 6.4 | 0.00 | 0.00 | 0.00 | 79 | 1003.7 |
| 20260505124547 | 18 | 72 | 0.0 | 8.0 | 0.00 | 0.00 | 0.00 | 82 | 1003.7 |
| 20260505123045 | 18 | 46 | 3.2 | 14.5 | 0.00 | 0.00 | 0.00 | 82 | 1003.5 |
| 20260505121555 | 18 | 154 | 4.8 | 14.5 | 0.00 | 0.00 | 0.00 | 82 | 1003.4 |
| 20260505120044 | 18 | 70 | 3.2 | 9.7 | 0.00 | 0.00 | 0.00 | 83 | 1003.2 |
| 20260505114541 | 18 | 55 | 4.8 | 17.7 | 0.00 | 0.00 | 0.00 | 82 | 1003.1 |
| 20260505113042 | 18 | 58 | 4.8 | 17.7 | 0.00 | 0.00 | 0.00 | 82 | 1003.0 |
| 20260505111543 | 18 | 77 | 8.0 | 19.3 | 0.00 | 0.00 | 0.00 | 83 | 1002.7 |
| 20260505101541 | 18 | 83 | 4.8 | 16.1 | 0.00 | 0.00 | 0.00 | 83 | 1002.0 |
| 20260505100036 | 18 | 64 | 3.2 | 14.5 | 0.00 | 0.00 | 0.00 | 83 | 1001.8 |
| 20260505094537 | 18 | 83 | 1.6 | 11.3 | 0.00 | 0.00 | 0.00 | 83 | 1001.8 |
| 20260505093040 | 18 | 64 | 4.8 | 14.5 | 0.00 | 0.00 | 0.00 | 82 | 1001.9 |
| 20260505091532 | 18 | 72 | 0.0 | 11.3 | 0.00 | 0.00 | 0.00 | 82 | 1001.9 |
| 20260505090033 | 18 | 80 | 3.2 | 11.3 | 0.00 | 0.00 | 0.00 | 81 | 1002.1 |
| 20260505084528 | 18 | 65 | 1.6 | 12.9 | 0.00 | 0.00 | 0.00 | 79 | 1002.1 |
| 20260505083028 | 19 | 63 | 3.2 | 9.7 | 0.00 | 0.00 | 0.00 | 78 | 1002.2 |
| 20260505081531 | 19 | 58 | 1.6 | 8.0 | 0.00 | 0.00 | 0.00 | 78 | 1002.3 |
| 20260505080027 | 19 | 101 | 3.2 | 8.0 | 0.00 | 0.00 | 0.00 | 78 | 1002.3 |
| 20260505074526 | 19 | 65 | 3.2 | 9.7 | 0.00 | 0.00 | 0.00 | 79 | 1002.6 |
| 20260505073035 | 19 | 53 | 3.2 | 8.0 | 0.00 | 0.00 | 0.00 | 78 | 1002.9 |
| 20260505071525 | 19 | 58 | 4.8 | 8.0 | 0.00 | 0.00 | 0.00 | 78 | 1002.9 |
| 20260505070024 | 18 | 43 | 3.2 | 8.0 | 0.00 | 0.00 | 0.00 | 79 | 1002.9 |
| 20260505064525 | 18 | 36 | 1.6 | 6.4 | 0.00 | 0.00 | 0.00 | 79 | 1003.3 |
| 20260505063025 | 18 | 29 | 3.2 | 4.8 | 0.00 | 0.00 | 0.00 | 79 | 1003.3 |
| 20260505061519 | 19 | 144 | 0.0 | 8.0 | 0.00 | 0.00 | 0.00 | 76 | 1002.5 |
| 20260505060026 | 20 | 86 | 3.2 | 11.3 | 0.00 | 0.00 | 0.00 | 74 | 1002.1 |
| 20260505054530 | 20 | 149 | 3.2 | 8.0 | 0.00 | 0.00 | 0.00 | 73 | 1002.3 |
| 20260505053012 | 20 | 169 | 3.2 | 12.9 | 0.00 | 0.00 | 0.00 | 73 | 1002.7 |
| 20260505051510 | 20 | 165 | 3.2 | 12.9 | 0.00 | 0.00 | 0.00 | 72 | 1002.6 |
| 20260505041504 | 20 | 159 | 6.4 | 19.3 | 0.00 | 0.00 | 0.00 | 70 | 1002.5 |
| 20260505040004 | 20 | 192 | 6.4 | 17.7 | 0.00 | 0.00 | 0.00 | 69 | 1002.7 |
| 20260505034501 | 20 | 102 | 6.4 | 16.1 | 0.00 | 0.00 | 0.00 | 68 | 1002.9 |
| 20260505033115 | 21 | 98 | 6.4 | 16.1 | 0.00 | 0.00 | 0.00 | 66 | 1003.3 |
| 20260505031557 | 21 | 163 | 3.2 | 12.9 | 0.00 | 0.00 | 0.00 | 66 | 1003.5 |
| 20260505030057 | 21 | 153 | 4.8 | 12.9 | 0.00 | 0.00 | 0.00 | 66 | 1003.9 |